Regional Weather Roundup
Issued by NWS

Home | Current Version | Previous Version | Text Only | Print | Product List | Glossary Off
Versions: 1 2 3 4 5 6 7 8 9 10 11 12 13 14 15 16 17 18 19 20 21 22 23 24 25 26 27 28 29 30 31 32 33 34 35 36 37 38 39 40 41 42 43 44 45 46 47 48 49 50

000
ASUS43 KOAX 281502
RWRNE

WEATHER ROUNDUP FOR NEBRASKA
NATIONAL WEATHER SERVICE OMAHA NE
900 AM CST WED JAN 28 2015

NOTES: SATELLITE DATA IS BEING USED TO AUGMENT CLOUD COVER ABOVE
       12000 FEET.
       "FAIR" INDICATES FEW OR NO CLOUDS BELOW 12,000 FEET WITH NO
       SIGNIFICANT WEATHER AND/OR OBSTRUCTIONS TO VISIBILITY.

  * THESE STATIONS DO NOT REPORT WEATHER SUCH AS RAIN...SNOW OR FOG.

NEZ001>004-019>022-054>056-281600-
NEBRASKA PANHANDLE

CITY           SKY/WX    TMP DP  RH WIND       PRES   REMARKS
SCOTTSBLUFF      N/A    N/A N/A N/A MISG      29.97R
ALLIANCE       PTCLDY    45  34  65 W24G30    29.91R
CHADRON        PTCLDY    44  32  62 W7        29.90R
SIDNEY         PTCLDY    47  32  56 NW18G26   29.96R
$$

NEZ057>060-069>072-079>082-281600-
SOUTHWEST NEBRASKA

CITY           SKY/WX    TMP DP  RH WIND       PRES   REMARKS
NORTH PLATTE   MOCLDY    34  29  82 NW5       29.86S WCI  30
IMPERIAL       MOCLDY    42  31  64 NW9       29.91S
LEXINGTON      MOSUNNY   41  33  73 W15       29.83S
MCCOOK         PTSUNNY   47  34  60 NW12      29.88R
$$

NEZ005>010-023>029-035>040-094-281600-
NORTH CENTRAL NEBRASKA

CITY           SKY/WX    TMP DP  RH WIND       PRES   REMARKS
VALENTINE      MOCLDY    45  32  60 W13       29.77S
BROKEN BOW     MOCLDY    48  33  56 W5        29.80R
ORD            PTSUNNY   29  26  89 CALM      29.78F
$$

NEZ041-046>049-061>064-073>077-083>087-281600-
SOUTH CENTRAL NEBRASKA

CITY           SKY/WX    TMP DP  RH WIND       PRES   REMARKS
GRAND ISLAND   MOSUNNY   31  27  85 NW3       29.81R
AURORA         MOSUNNY   31  29  93 CALM      29.79F
HASTINGS       SUNNY     30  25  81 W3        29.79S
KEARNEY *      MOSUNNY   34  28  80 NW7       29.81R WCI  28
YORK           MOSUNNY   32  28  86 SE5       29.80F WCI  27
$$

NEZ011>018-030>034-042>045-281600-
NORTHEAST NEBRASKA

CITY           SKY/WX    TMP DP  RH WIND       PRES   REMARKS
NORFOLK        PTSUNNY   33  29  85 SE7       29.80S WCI  27
ALBION         PTSUNNY   31  28  88 CALM      29.79F
BLAIR          SUNNY     37  31  81 SE13      29.82F WCI  28
COLUMBUS *     MOSUNNY   34  27  75 E3        29.82F
FREMONT        MOSUNNY   36  31  82 SE9       29.84R WCI  29
TEKAMAH        SUNNY     35  31  85 SE10      29.85F WCI  27
$$

NEZ050>053-065>068-078-088>093-281600-
SOUTHEAST NEBRASKA

CITY           SKY/WX    TMP DP  RH WIND       PRES   REMARKS
LINCOLN        MOSUNNY   36  30  79 S5        29.83F WCI  32
OMAHA EPPLEY   PTSUNNY   35  30  82 SE13      29.85F WCI  26
FALLS CITY     SUNNY     38  30  73 SE8       29.86F WCI  32
$$

NEZ044-045-051>053-067-281600-
OMAHA AREA

CITY           SKY/WX    TMP DP  RH WIND       PRES   REMARKS
OMAHA EPPLEY   PTSUNNY   35  30  82 SE13      29.85F WCI  26
BLAIR          SUNNY     37  31  81 SE13      29.82F WCI  28
FREMONT        MOSUNNY   36  31  82 SE9       29.84R WCI  29
OFFUTT AFB     SUNNY     35  30  82 SE15      29.84F WCI  26
$$



USA.gov is the U.S. government's official web portal to all federal, state and local government web resources and services.